Weather History for Molokai, HI

Change the Weather History Date:

Saturday, June 1, 2013

  Actual Average Record
Temperature  
Mean Temperature 76 °F -  
Max Temperature 82 °F 82 °F 87 °F (2005)
Min Temperature 70 °F 67 °F 58 °F (1957)
Cooling Degree Days 11    
Growing Degree Days 26 (Base 50)    
Moisture  
Dew Point 69 °F    
Average Humidity 81    
Maximum Humidity 93    
Minimum Humidity 66    
Precipitation  
Precipitation 0.00 in - - ()
Sea Level Pressure  
Sea Level Pressure 30.06 in    
Wind  
Wind Speed 10 mph (NE)    
Max Wind Speed 20 mph    
Max Gust Speed 30 mph    
Visibility 10 miles    
Events      
Averages and records for this station are not official NWS values.
T = Trace of Precipitation, MM = Missing Value Source: NWS Daily Summary

Daily Weather History Graph

Daily Weather History Graph

Search for Another Location

Airport:

Trip Planner

Search our weather history database for the weather conditions in past years. The results will help you decide how hot, cold, wet, or windy it might be!

Date:

Astronomy

Jun. 01, 2013 Rise Set
Actual Time 5:46 AM HST 7:06 PM HST
Civil Twilight 5:21 AM HST 7:31 PM HST
Nautical Twilight 4:52 AM HST 8:00 PM HST
Astronomical Twilight 4:22 AM HST 8:30 PM HST
Moon 1:02 AM HST (6/1) 1:28 PM HST (6/1)
Length of Visible Light 14h 09m
Length of Day
13h 20m
Last Quarter, 38% of the Moon is Illuminated
Jun 1
Last Quarter
Jun 8
New
Jun 16
First Quarter
Jun 23
Full
Jun 29
Last Quarter

Hourly Weather History & Observations

Time (HST) Temp. Heat Index Dew Point Humidity Pressure Visibility Wind Dir Wind Speed Gust Speed Precip Events Conditions
12:28 AM 71.6 °F - 68.0 °F 88% 30.06 in 10.0 mi NNE 3.5 mph - N/A   Partly Cloudy
12:54 AM 70.0 °F - 68.0 °F 93% 30.05 in 10.0 mi NNE 3.5 mph - N/A   Clear
1:54 AM 70.0 °F - 66.0 °F 87% 30.05 in 10.0 mi NE 4.6 mph - N/A   Clear
2:54 AM 72.0 °F - 66.9 °F 84% 30.04 in 10.0 mi ENE 11.5 mph 16.1 mph N/A   Clear
3:54 AM 72.0 °F - 69.1 °F 91% 30.03 in 10.0 mi NE 8.1 mph - N/A   Clear
4:54 AM 72.0 °F - 69.1 °F 91% 30.04 in 10.0 mi NE 10.4 mph 16.1 mph N/A   Clear
5:54 AM 72.0 °F - 68.0 °F 87% 30.04 in 10.0 mi NE 10.4 mph 18.4 mph N/A   Clear
6:54 AM 75.0 °F - 66.0 °F 73% 30.07 in 10.0 mi East 4.6 mph - N/A   Clear
7:54 AM 78.1 °F - 66.0 °F 66% 30.08 in 10.0 mi NE 10.4 mph 19.6 mph N/A   Partly Cloudy
8:54 AM 80.1 °F 82.7 °F 68.0 °F 67% 30.09 in 10.0 mi NE 15.0 mph 23.0 mph N/A   Partly Cloudy
9:54 AM 80.1 °F 83.2 °F 70.0 °F 71% 30.09 in 10.0 mi NE 19.6 mph 25.3 mph N/A   Partly Cloudy
10:54 AM 80.1 °F 83.6 °F 71.1 °F 74% 30.08 in 10.0 mi NE 19.6 mph 29.9 mph N/A   Partly Cloudy
11:54 AM 81.0 °F 84.4 °F 70.0 °F 69% 30.07 in 10.0 mi NE 18.4 mph 27.6 mph N/A   Partly Cloudy
12:54 PM 82.0 °F 86.7 °F 72.0 °F 71% 30.05 in 10.0 mi NE 16.1 mph 24.2 mph N/A   Scattered Clouds
1:54 PM 82.0 °F 86.3 °F 71.1 °F 69% 30.03 in 10.0 mi NNE 16.1 mph 29.9 mph N/A   Clear
2:54 PM 81.0 °F 84.4 °F 70.0 °F 69% 30.02 in 10.0 mi NE 18.4 mph 28.8 mph N/A   Scattered Clouds
3:54 PM 79.0 °F - 71.1 °F 77% 30.02 in 10.0 mi NNE 18.4 mph 28.8 mph N/A   Clear
4:54 PM 78.1 °F - 71.1 °F 79% 30.03 in 10.0 mi NE 19.6 mph 29.9 mph N/A   Partly Cloudy
5:54 PM 77.0 °F - 70.0 °F 79% 30.04 in 10.0 mi NE 18.4 mph 28.8 mph N/A   Partly Cloudy
6:54 PM 73.9 °F - 70.0 °F 87% 30.05 in 10.0 mi NNE 17.3 mph 27.6 mph N/A   Clear
7:54 PM 73.9 °F - 70.0 °F 87% 30.08 in 10.0 mi NNE 10.4 mph 17.3 mph N/A   Clear
8:54 PM 73.0 °F - 68.0 °F 84% 30.11 in 10.0 mi North 3.5 mph - N/A   Clear
9:54 PM 73.0 °F - 70.0 °F 90% 30.12 in 10.0 mi NNE 6.9 mph - N/A   Clear
10:54 PM 73.0 °F - 71.1 °F 93% 30.12 in 10.0 mi NNE 12.7 mph 20.7 mph N/A   Clear
11:54 PM 73.0 °F - 70.0 °F 90% 30.11 in 10.0 mi NNE 8.1 mph - N/A   Clear